Location: Boiro
(42.6475°N, 8.8834°W)
Time: 07:50:10
(UTC+01:00)

Transit 4A - Pass Details

Date: 01 October 2023
Orbit: 864 x 979 km, 66.8° (Epoch: 02 December)

Event Time Altitude Azimuth Distance (km) Brightness Sun altitude
Rises 21:31:51 0° 332° (NNW) 3,677 11.6 -14.5°
Reaches altitude 10° 21:34:34 10° 339° (NNW) 2,717 10.7 -15.0°
Maximum altitude 21:40:40 47° 52° (NE) 1,250 8.3 -16.1°
Enters shadow 21:43:59 25° 112° (ESE) 1,803 8.8 -16.7°
